Time,TemperatureF,DewpointF,PressureIn,WindDirection,WindDirectionDegrees,WindSpeedMPH,WindSpeedGustMPH,Humidity,HourlyPrecipIn,Conditions,Clouds,dailyrainin,SoftwareType,DateUTC
2013-04-27 00:02:00,67.0,-99.9,-100.00,WNW,296,18.0,23.0,-999,-99.99,,,-99.99,,2013-04-27 07:02:00,
2013-04-27 00:11:00,67.0,-99.9,-100.00,WNW,296,18.0,23.0,-999,-99.99,,,-99.99,,2013-04-27 07:11:00,
2013-04-27 01:02:00,66.0,-99.9,-100.00,NW,305,17.0,20.0,-999,-99.99,,,-99.99,,2013-04-27 08:02:00,
2013-04-27 01:12:00,66.0,-99.9,-100.00,NW,305,17.0,20.0,-999,-99.99,,,-99.99,,2013-04-27 08:12:00,
2013-04-27 02:01:00,66.0,-99.9,-100.00,NW,304,15.0,21.0,-999,-99.99,,,-99.99,,2013-04-27 09:01:00,
2013-04-27 02:11:00,66.0,-99.9,-100.00,NW,304,15.0,21.0,-999,-99.99,,,-99.99,,2013-04-27 09:11:00,
2013-04-27 03:03:00,64.0,-99.9,-100.00,WNW,296,10.0,14.0,-999,-99.99,,,-99.99,,2013-04-27 10:03:00,
2013-04-27 03:12:00,64.0,-99.9,-100.00,WNW,296,10.0,14.0,-999,-99.99,,,-99.99,,2013-04-27 10:12:00,
2013-04-27 04:03:00,63.0,-99.9,-100.00,WNW,295,7.0,10.0,-999,-99.99,,,-99.99,,2013-04-27 11:03:00,
2013-04-27 04:12:00,63.0,-99.9,-100.00,WNW,295,7.0,10.0,-999,-99.99,,,-99.99,,2013-04-27 11:12:00,
2013-04-27 05:02:00,63.0,-99.9,-100.00,NW,312,8.0,10.0,-999,-99.99,,,-99.99,,2013-04-27 12:02:00,
2013-04-27 06:02:00,61.0,-99.9,-100.00,NNW,337,8.0,12.0,-999,-99.99,,,-99.99,,2013-04-27 13:02:00,
2013-04-27 07:02:00,60.0,-99.9,-100.00,NNW,329,7.0,9.0,-999,-99.99,,,-99.99,,2013-04-27 14:02:00,
2013-04-27 08:02:00,59.0,-99.9,-100.00,WSW,256,3.0,6.0,-999,-99.99,,,-99.99,,2013-04-27 15:02:00,
2013-04-27 10:02:00,59.0,-99.9,-100.00,WNW,294,10.0,12.0,-999,-99.99,,,-99.99,,2013-04-27 17:02:00,
2013-04-27 10:12:00,59.0,-99.9,-100.00,WNW,294,10.0,12.0,-999,-99.99,,,-99.99,,2013-04-27 17:12:00,
2013-04-27 11:02:00,61.0,-99.9,-100.00,North,349,5.0,8.0,-999,-99.99,,,-99.99,,2013-04-27 18:02:00,
2013-04-27 11:12:00,61.0,-99.9,-100.00,North,349,5.0,8.0,-999,-99.99,,,-99.99,,2013-04-27 18:12:00,
2013-04-27 12:02:00,64.0,-99.9,-100.00,South,173,8.0,12.0,-999,-99.99,,,-99.99,,2013-04-27 19:02:00,
2013-04-27 12:11:00,64.0,-99.9,-100.00,South,173,8.0,12.0,-999,-99.99,,,-99.99,,2013-04-27 19:11:00,
2013-04-27 13:02:00,66.0,-99.9,-100.00,SSE,159,12.0,15.0,-999,-99.99,,,-99.99,,2013-04-27 20:02:00,
2013-04-27 13:11:00,66.0,-99.9,-100.00,SSE,159,12.0,15.0,-999,-99.99,,,-99.99,,2013-04-27 20:11:00,
2013-04-27 14:02:00,72.0,-99.9,-100.00,SW,218,12.0,21.0,-999,-99.99,,,-99.99,,2013-04-27 21:02:00,
2013-04-27 14:12:00,72.0,-99.9,-100.00,SW,218,12.0,21.0,-999,-99.99,,,-99.99,,2013-04-27 21:12:00,
2013-04-27 15:03:00,77.0,-99.9,-100.00,West,265,22.0,35.0,-999,-99.99,,,-99.99,,2013-04-27 22:03:00,
2013-04-27 15:13:00,77.0,-99.9,-100.00,West,265,22.0,35.0,-999,-99.99,,,-99.99,,2013-04-27 22:13:00,
2013-04-27 16:03:00,74.0,-99.9,-100.00,NW,306,17.0,27.0,-999,-99.99,,,-99.99,,2013-04-27 23:03:00,
2013-04-27 16:12:00,74.0,-99.9,-100.00,NW,306,17.0,27.0,-999,-99.99,,,-99.99,,2013-04-27 23:12:00,
2013-04-27 17:02:00,71.0,-99.9,-100.00,WNW,290,25.0,38.0,-999,-99.99,,,-99.99,,2013-04-28 00:02:00,
2013-04-27 17:12:00,71.0,-99.9,-100.00,WNW,290,25.0,38.0,-999,-99.99,,,-99.99,,2013-04-28 00:12:00,
2013-04-27 18:02:00,67.0,-99.9,-100.00,WNW,289,25.0,35.0,-999,-99.99,,,-99.99,,2013-04-28 01:02:00,
2013-04-27 18:12:00,67.0,-99.9,-100.00,WNW,289,25.0,35.0,-999,-99.99,,,-99.99,,2013-04-28 01:12:00,
2013-04-27 19:02:00,64.0,-99.9,-100.00,WNW,290,24.0,31.0,-999,-99.99,,,-99.99,,2013-04-28 02:02:00,
2013-04-27 19:12:00,64.0,-99.9,-100.00,WNW,290,24.0,31.0,-999,-99.99,,,-99.99,,2013-04-28 02:12:00,
2013-04-27 20:02:00,62.0,-99.9,-100.00,West,267,22.0,31.0,-999,-99.99,,,-99.99,,2013-04-28 03:02:00,
2013-04-27 20:12:00,62.0,-99.9,-100.00,West,267,22.0,31.0,-999,-99.99,,,-99.99,,2013-04-28 03:12:00,
2013-04-27 21:03:00,60.0,-99.9,-100.00,NNW,333,12.0,15.0,-999,-99.99,,,-99.99,,2013-04-28 04:03:00,
2013-04-27 21:13:00,60.0,-99.9,-100.00,NNW,333,12.0,15.0,-999,-99.99,,,-99.99,,2013-04-28 04:13:00,
2013-04-27 22:02:00,56.0,-99.9,-100.00,NW,323,23.0,31.0,-999,-99.99,,,-99.99,,2013-04-28 05:02:00,
2013-04-27 22:12:00,56.0,-99.9,-100.00,NW,323,23.0,31.0,-999,-99.99,,,-99.99,,2013-04-28 05:12:00,
2013-04-27 23:02:00,55.0,-99.9,-100.00,NW,324,15.0,22.0,-999,-99.99,,,-99.99,,2013-04-28 06:02:00,
2013-04-27 23:13:00,55.0,-99.9,-100.00,NW,324,15.0,22.0,-999,-99.99,,,-99.99,,2013-04-28 06:13:00,